Regional Weather Roundup
Issued by NWS Mobile, AL

Home | Current Version | Previous Version | Text Only | Print | Product List | Glossary On
Versions: 1 2 3 4 5 6 7 8 9 10 11 12 13 14 15 16 17 18 19 20 21 22 23 24 25 26 27 28 29 30 31 32 33 34 35 36 37 38 39 40 41 42 43 44 45 46 47 48 49 50
000
ASUS44 KMOB 012116
RWRMOB
REGIONAL WEATHER ROUNDUP
NATIONAL WEATHER SERVICE MOBILE AL
400 PM CDT WED APR 01 2015

ALZ061>064-012200-
COASTAL ALABAMA


CITY           SKY/WX    TMP DP  RH WIND       PRES   REMARKS
MOBILE REG APT PTSUNNY   78  59  51 SW13      30.05F
BROOKLEY FIELD PTSUNNY   79  60  52 S8        30.06F
GULF SHORES    CLOUDY    76  64  65 W6        30.07F

$$

ALZ051>060-012200-
INTERIOR SOUTHWEST AND SOUTH CENTRAL ALABAMA


CITY           SKY/WX    TMP DP  RH WIND       PRES   REMARKS
ANDALUSIA/OPP  MOSUNNY   86  51  29 W7        30.02F
EVERGREEN      PTSUNNY   80  53  39 SW7       30.03F
FLORALA        PTCLDY    82  53  36 SW7       30.04F
GREENVILLE     FAIR      82  56  40 S9        30.01F

$$

FLZ001>006-012200-
WESTERN FLORIDA PANHANDLE


CITY           SKY/WX    TMP DP  RH WIND       PRES   REMARKS
CRESTVIEW      PTSUNNY   82  57  42 W9        30.05F
DESTIN         MOSUNNY   75  64  68 SW12G20   30.07S
DUKE FIELD     PTSUNNY   81  61  50 SW16      30.04S
MARY ESTHER    MOSUNNY   75  61  61 S13       30.06S
MILTON         MOCLDY    82  59  45 VRB7      30.04F
PENSACOLA      MOSUNNY   77  62  59 S15G23    30.05F
NAS PENSACOLA  PTSUNNY   77  64  64 SW13      30.07S
VALPARAISO     MOSUNNY   78  62  57 W17G25    30.05F

$$

...MARINE OBSERVATIONS...

STATION/POSITION TIME  SKY/WX   TEMP    WIND        PRES    VSBY
                                AIR SEA DIR/SP/G
                 (UTC)          (F)     (DEG/KT/KT) (MB)    (MI)
PASCAGOULA       2000            72     170/ 10/ 11 1018.2F
PETIT BOIS ISL   2000            73     160/  6/  8 1018.8F
E DAUPHIN ISLAND 2100            72     180/  5/  7 1018.0F
MIDDLE BAY LIGHT 2000                   190/ 15     1018.3S
USCG MOBILE BAY  2000            79 69  220/  6/ 14 1016.5F
STATE DOCKS      2000            72 65              1017.4F
MEAHER PARK      2100            72     170/ 14     1017.3F
FORT MORGAN      2000            71     210/  7/  7 1018.2F
12 S ORANGE BCH  2050            72 74  200/  4/  6 1017.8F
WVE H/P(F/S)=  2/ 4

PENSACOLA BAY    2000            75 73  210/  6/  8 1018.6F
64 S DAUPHIN ISL 2050            74 76  170/  8/  8 1018.7F
WVE H/P(F/S)=  2/ 4

67 S FORT MORGAN 2030            73     200/ 14     1018.6S
115 SE PENSACOLA 2050            74 75  230/ 12/ 12 1019.2S
WVE H/P(F/S)=  2/ 4

MID GULF/42001   2050            77 78  150/ 12/ 16 1017.9F
WVE H/P(F/S)=  3/ 5

EAST GULF/42003  2050            73 75  110/ 10/ 12 1019.0F
WVE H/P(F/S)=  2/ 6


$$

...NEARBY LOCATIONS

CITY           SKY/WX    TMP DP  RH WIND       PRES   REMARKS
GULFPORT       CLOUDY    76  65  68 SE14      30.04F
BILOXI         CLOUDY    75  67  76 S10       30.04F
PASCAGOULA     PTSUNNY   76  63  64 S7        30.06F
HATTIESBURG    CLOUDY    82  58  43 S9        30.02F
LAUREL         CLOUDY    81  55  41 S5        30.03F
MERIDIAN       PTSUNNY   79  59  50 SW10      30.02F
MERIDIAN NAS   PTSUNNY   78  59  51 VRB6      30.01F
MONTGOMERY     SUNNY     84  55  36 CALM      30.00F
MAXWELL AFB    SUNNY     82  57  42 VRB3      30.00F
TROY           MOSUNNY   83  57  41 CALM      30.01F
FORT RUCKER    MOSUNNY   83  57  41 CALM      30.00F
DALEVILLE      SUNNY     84  53  34 W6        30.01F
DOTHAN         SUNNY     84  57  39 SW13      30.05F

$$

...OTHER SURROUNDING LOCATIONS...

CITY           SKY/WX    TMP DP  RH WIND       PRES   REMARKS
BIRMINGHAM     MOSUNNY   79  55  43 NW6       30.04F
TUSCALOOSA     SUNNY     82  58  43 S8        29.99F
COLUMBUS GA    SUNNY     81  50  33 CALM      30.01F
PANAMA CITY    NOT AVBL
TALLAHASSEE    PTSUNNY   87  56  34 NW7       30.02F
BATON ROUGE    PTSUNNY   82  60  47 S14       30.01F
NEW ORLEANS    CLOUDY    79  62  56 S15       30.03F
SLIDELL        CLOUDY    79  65  62 S12       30.04S
JACKSON        CLOUDY    79  61  53 S10       30.00F
MCCOMB         PTSUNNY   80  60  50 S15       30.01F

$$

...SURROUNDING MARINE OBSERVATIONS...

STATION/POSITION TIME  SKY/WX   TEMP    WIND        PRES    VSBY
                                AIR SEA DIR/SP/G
                 (UTC)          (F)     (DEG/KT/KT) (MB)    (MI)
WAVELAND         2000            72 70  160/ 10/ 12 1017.8F
PASCAGOULA RGN A 2000            76     180/  7/  9 1018.0F
PASCAGOULA PORT  2000               69                N/A
GRAND ISLE       2000            75 71  140/  8/ 10 1018.1F
SOUTHWEST PASS   2100            73     140/  9/ 10 1017.8F
PILOT STATION E  2000            80 56  120/  7/  7 1018.7F
SHELL BEACH      2000            76 72  150/ 12/ 15 1017.4F
PANAMA CITY      2000            71 71  230/ 11/ 11 1018.0F
APALACHICOLA     2000            77 67  260/  9/ 17 1018.0F
TYNDALL TOWER C  2100            70     280/  8/  9 1018.5F
S APLCHCLA/42036 2050            72 70  230/  8/  8 1019.0F
WVE H/P(F/S)=  2/ 5


$$



USA.gov is the U.S. government's official web portal to all federal, state and local government web resources and services.